Year,Month,Day,Hour,Minute,Value (Times are PST for temperature in C)
2018,07,28,00,00,22.70
2018,07,28,00,01,22.70
2018,07,28,00,02,22.60
2018,07,28,00,03,22.60
2018,07,28,00,04,22.60
2018,07,28,00,05,22.60
2018,07,28,00,06,22.50
2018,07,28,00,07,22.50
2018,07,28,00,08,22.50
2018,07,28,00,09,22.40
2018,07,28,00,10,22.40
2018,07,28,00,11,22.40
2018,07,28,00,12,22.40
2018,07,28,00,13,22.40
2018,07,28,00,14,22.40
2018,07,28,00,15,22.50
2018,07,28,00,16,22.50
2018,07,28,00,17,22.50
2018,07,28,00,18,22.50
2018,07,28,00,19,22.50
2018,07,28,00,20,22.60
2018,07,28,00,21,22.60
2018,07,28,00,22,22.60
2018,07,28,00,23,22.60
2018,07,28,00,24,22.60
2018,07,28,00,25,22.60
2018,07,28,00,26,22.60
2018,07,28,00,27,22.60
2018,07,28,00,28,22.60
2018,07,28,00,29,22.60
2018,07,28,00,30,22.50
2018,07,28,00,31,22.50
2018,07,28,00,32,22.50
2018,07,28,00,33,22.50
2018,07,28,00,34,22.50
2018,07,28,00,35,22.40
2018,07,28,00,36,22.40
2018,07,28,00,37,22.40
2018,07,28,00,38,22.40
2018,07,28,00,39,22.40
2018,07,28,00,40,22.40
2018,07,28,00,41,22.40
2018,07,28,00,42,22.40
2018,07,28,00,43,22.40
2018,07,28,00,44,22.50
2018,07,28,00,45,22.50
2018,07,28,00,46,22.50
2018,07,28,00,47,22.60
2018,07,28,00,48,22.60
2018,07,28,00,49,22.60
2018,07,28,00,50,22.70
2018,07,28,00,51,22.70
2018,07,28,00,52,22.70
2018,07,28,00,53,22.80
2018,07,28,00,54,22.80
2018,07,28,00,55,22.80
2018,07,28,00,56,22.80
2018,07,28,00,57,22.80
2018,07,28,00,58,22.70
2018,07,28,00,59,22.70
2018,07,28,01,00,22.70
2018,07,28,01,01,22.60
2018,07,28,01,02,22.60
2018,07,28,01,03,22.60
2018,07,28,01,04,22.50
2018,07,28,01,05,22.40
2018,07,28,01,06,22.40
2018,07,28,01,07,22.40
2018,07,28,01,08,22.30
2018,07,28,01,09,22.30
2018,07,28,01,10,22.30
2018,07,28,01,11,22.30
2018,07,28,01,12,22.30
2018,07,28,01,13,22.30
2018,07,28,01,14,22.20
2018,07,28,01,15,22.20
2018,07,28,01,16,22.20
2018,07,28,01,17,22.20
2018,07,28,01,18,22.20
2018,07,28,01,19,22.20
2018,07,28,01,20,22.10
2018,07,28,01,21,22.10
2018,07,28,01,22,22.10
2018,07,28,01,23,22.00
2018,07,28,01,24,21.90
2018,07,28,01,25,21.80
2018,07,28,01,26,21.70
2018,07,28,01,27,21.60
2018,07,28,01,28,21.50
2018,07,28,01,29,21.40
2018,07,28,01,30,21.30
2018,07,28,01,31,21.30
2018,07,28,01,32,21.30
2018,07,28,01,33,21.20
2018,07,28,01,34,21.20
2018,07,28,01,35,21.20
2018,07,28,01,36,21.20
2018,07,28,01,37,21.20
2018,07,28,01,38,21.20
2018,07,28,01,39,21.20
2018,07,28,01,40,21.10
2018,07,28,01,41,21.10
2018,07,28,01,42,21.10
2018,07,28,01,43,21.10
2018,07,28,01,44,21.10
2018,07,28,01,45,21.10
2018,07,28,01,46,21.10
2018,07,28,01,47,21.10
2018,07,28,01,48,21.10
2018,07,28,01,49,21.10
2018,07,28,01,50,21.10
2018,07,28,01,51,21.10
2018,07,28,01,52,21.10
2018,07,28,01,53,21.10
2018,07,28,01,54,21.10
2018,07,28,01,55,21.10
2018,07,28,01,56,21.00
2018,07,28,01,57,21.10
2018,07,28,01,58,21.10
2018,07,28,01,59,21.10
2018,07,28,02,00,21.10
2018,07,28,02,01,21.00
2018,07,28,02,02,21.00
2018,07,28,02,03,21.00
2018,07,28,02,04,20.90
2018,07,28,02,05,20.80
2018,07,28,02,06,20.70
2018,07,28,02,07,20.70
2018,07,28,02,08,20.60
2018,07,28,02,09,20.60
2018,07,28,02,10,20.50
2018,07,28,02,11,20.50
2018,07,28,02,12,20.50
2018,07,28,02,13,20.40
2018,07,28,02,14,20.40
2018,07,28,02,15,20.40
2018,07,28,02,16,20.30
2018,07,28,02,17,20.30
2018,07,28,02,18,20.30
2018,07,28,02,19,20.30
2018,07,28,02,20,20.20
2018,07,28,02,21,20.20
2018,07,28,02,22,20.20
2018,07,28,02,23,20.20
2018,07,28,02,24,20.10
2018,07,28,02,25,20.10
2018,07,28,02,26,20.10
2018,07,28,02,27,20.10
2018,07,28,02,28,20.10
2018,07,28,02,29,20.10
2018,07,28,02,30,20.10
2018,07,28,02,31,20.10
2018,07,28,02,32,20.10
2018,07,28,02,33,20.10
2018,07,28,02,34,20.10
2018,07,28,02,35,20.10
2018,07,28,02,36,20.10
2018,07,28,02,37,20.10
2018,07,28,02,38,20.10
2018,07,28,02,39,20.10
2018,07,28,02,40,20.10
2018,07,28,02,41,20.00
2018,07,28,02,42,20.00
2018,07,28,02,43,20.00
2018,07,28,02,44,20.00
2018,07,28,02,45,20.00
2018,07,28,02,46,20.00
2018,07,28,02,47,20.00
2018,07,28,02,48,20.00
2018,07,28,02,49,20.00
2018,07,28,02,50,20.00
2018,07,28,02,51,20.00
2018,07,28,02,52,20.10
2018,07,28,02,53,20.10
2018,07,28,02,54,20.10
2018,07,28,02,55,20.10
2018,07,28,02,56,20.10
2018,07,28,02,57,20.20
2018,07,28,02,58,20.20
2018,07,28,02,59,20.20
2018,07,28,03,00,20.30
2018,07,28,03,01,20.30
2018,07,28,03,02,20.30
2018,07,28,03,03,20.30
2018,07,28,03,04,20.30
2018,07,28,03,05,20.40
2018,07,28,03,06,20.40
2018,07,28,03,07,20.30
2018,07,28,03,08,20.30
2018,07,28,03,09,20.30
2018,07,28,03,10,20.30
2018,07,28,03,11,20.30
2018,07,28,03,12,20.30
2018,07,28,03,13,20.30
2018,07,28,03,14,20.30
2018,07,28,03,15,20.30
2018,07,28,03,16,20.30
2018,07,28,03,17,20.30
2018,07,28,03,18,20.30
2018,07,28,03,19,20.30
2018,07,28,03,20,20.30
2018,07,28,03,21,20.30
2018,07,28,03,22,20.30
2018,07,28,03,23,20.20
2018,07,28,03,24,20.20
2018,07,28,03,25,20.20
2018,07,28,03,26,20.10
2018,07,28,03,27,20.00
2018,07,28,03,28,19.90
2018,07,28,03,29,19.80
2018,07,28,03,30,19.80
2018,07,28,03,31,19.80
2018,07,28,03,32,19.70
2018,07,28,03,33,19.70
2018,07,28,03,34,19.70
2018,07,28,03,35,19.60
2018,07,28,03,36,19.60
2018,07,28,03,37,19.60
2018,07,28,03,38,19.60
2018,07,28,03,39,19.60
2018,07,28,03,40,19.60
2018,07,28,03,41,19.60
2018,07,28,03,42,19.70
2018,07,28,03,43,19.70
2018,07,28,03,44,19.80
2018,07,28,03,45,19.90
2018,07,28,03,46,20.00
2018,07,28,03,47,20.00
2018,07,28,03,48,20.10
2018,07,28,03,49,20.20
2018,07,28,03,50,20.20
2018,07,28,03,51,20.30
2018,07,28,03,52,20.30
2018,07,28,03,53,20.30
2018,07,28,03,54,20.30
2018,07,28,03,55,20.30
2018,07,28,03,56,20.30
2018,07,28,03,57,20.30
2018,07,28,03,58,20.30
2018,07,28,03,59,20.30
2018,07,28,04,00,20.30
2018,07,28,04,01,20.30
2018,07,28,04,02,20.20
2018,07,28,04,03,20.20
2018,07,28,04,04,20.20
2018,07,28,04,05,20.20
2018,07,28,04,06,20.20
2018,07,28,04,07,20.20
2018,07,28,04,08,20.20
2018,07,28,04,09,20.20
2018,07,28,04,10,20.20
2018,07,28,04,11,20.10
2018,07,28,04,12,20.10
2018,07,28,04,13,20.10
2018,07,28,04,14,20.00
2018,07,28,04,15,20.00
2018,07,28,04,16,20.00
2018,07,28,04,17,19.90
2018,07,28,04,18,19.90
2018,07,28,04,19,19.90
2018,07,28,04,20,19.80
2018,07,28,04,21,19.80
2018,07,28,04,22,19.80
2018,07,28,04,23,19.80
2018,07,28,04,24,19.70
2018,07,28,04,25,19.70
2018,07,28,04,26,19.70
2018,07,28,04,27,19.70
2018,07,28,04,28,19.70
2018,07,28,04,29,19.70
2018,07,28,04,30,19.60
2018,07,28,04,31,19.60
2018,07,28,04,32,19.60
2018,07,28,04,33,19.60
2018,07,28,04,34,19.60
2018,07,28,04,35,19.60
2018,07,28,04,36,19.60
2018,07,28,04,37,19.50
2018,07,28,04,38,19.50
2018,07,28,04,39,19.50
2018,07,28,04,40,19.40
2018,07,28,04,41,19.40
2018,07,28,04,42,19.30
2018,07,28,04,43,19.30
2018,07,28,04,44,19.20
2018,07,28,04,45,19.10
2018,07,28,04,46,19.10
2018,07,28,04,47,19.00
2018,07,28,04,48,18.90
2018,07,28,04,49,18.90
2018,07,28,04,50,18.80
2018,07,28,04,51,18.80
2018,07,28,04,52,18.80
2018,07,28,04,53,18.80
2018,07,28,04,54,18.80
2018,07,28,04,55,18.90
2018,07,28,04,56,18.90
2018,07,28,04,57,18.80
2018,07,28,04,58,18.80
2018,07,28,04,59,18.80
2018,07,28,05,00,18.80
2018,07,28,05,01,18.80
2018,07,28,05,02,18.70
2018,07,28,05,03,18.70
2018,07,28,05,04,18.70
2018,07,28,05,05,18.60
2018,07,28,05,06,18.60
2018,07,28,05,07,18.60
2018,07,28,05,08,18.50
2018,07,28,05,09,18.50
2018,07,28,05,10,18.50
2018,07,28,05,11,18.50
2018,07,28,05,12,18.40
2018,07,28,05,13,18.40
2018,07,28,05,14,18.40
2018,07,28,05,15,18.40
2018,07,28,05,16,18.40
2018,07,28,05,17,18.40
2018,07,28,05,18,18.40
2018,07,28,05,19,18.40
2018,07,28,05,20,18.30
2018,07,28,05,21,18.30
2018,07,28,05,22,18.30
2018,07,28,05,23,18.30
2018,07,28,05,24,18.20
2018,07,28,05,25,18.20
2018,07,28,05,26,18.20
2018,07,28,05,27,18.20
2018,07,28,05,28,18.10
2018,07,28,05,29,18.10
2018,07,28,05,30,18.00
2018,07,28,05,31,18.00
2018,07,28,05,32,17.90
2018,07,28,05,33,17.80
2018,07,28,05,34,17.80
2018,07,28,05,35,17.80
2018,07,28,05,36,17.70
2018,07,28,05,37,17.70
2018,07,28,05,38,17.70
2018,07,28,05,39,17.60
2018,07,28,05,40,17.60
2018,07,28,05,41,17.60
2018,07,28,05,42,17.50
2018,07,28,05,43,17.50
2018,07,28,05,44,17.50
2018,07,28,05,45,17.50
2018,07,28,05,46,17.40
2018,07,28,05,47,17.40
2018,07,28,05,48,17.40
2018,07,28,05,49,17.40
2018,07,28,05,50,17.40
2018,07,28,05,51,17.40
2018,07,28,05,52,17.40
2018,07,28,05,53,17.40
2018,07,28,05,54,17.40
2018,07,28,05,55,17.30
2018,07,28,05,56,17.30
2018,07,28,05,57,17.30
2018,07,28,05,58,17.30
2018,07,28,05,59,17.30
2018,07,28,06,00,17.30
2018,07,28,06,01,17.30
2018,07,28,06,02,17.30
2018,07,28,06,03,17.30
2018,07,28,06,04,17.30
2018,07,28,06,05,17.30
2018,07,28,06,06,17.30
2018,07,28,06,07,17.30
2018,07,28,06,08,17.30
2018,07,28,06,09,17.30
2018,07,28,06,10,17.30
2018,07,28,06,11,17.30
2018,07,28,06,12,17.30
2018,07,28,06,13,17.30
2018,07,28,06,14,17.30
2018,07,28,06,15,17.30
2018,07,28,06,16,17.30
2018,07,28,06,17,17.30
2018,07,28,06,18,17.30
2018,07,28,06,19,17.30
2018,07,28,06,20,17.30
2018,07,28,06,21,17.30
2018,07,28,06,22,17.30
2018,07,28,06,23,17.30
2018,07,28,06,24,17.30
2018,07,28,06,25,17.30
2018,07,28,06,26,17.30
2018,07,28,06,27,17.30
2018,07,28,06,28,17.40
2018,07,28,06,29,17.40
2018,07,28,06,30,17.40
2018,07,28,06,31,17.40
2018,07,28,06,32,17.40
2018,07,28,06,33,17.50
2018,07,28,06,34,17.50
2018,07,28,06,35,17.50
2018,07,28,06,36,17.60
2018,07,28,06,37,17.60
2018,07,28,06,38,17.60
2018,07,28,06,39,17.60
2018,07,28,06,40,17.70
2018,07,28,06,41,17.70
2018,07,28,06,42,17.70
2018,07,28,06,43,17.70
2018,07,28,06,44,17.70
2018,07,28,06,45,17.70
2018,07,28,06,46,17.80
2018,07,28,06,47,17.80
2018,07,28,06,48,17.80
2018,07,28,06,49,17.80
2018,07,28,06,50,17.80
2018,07,28,06,51,17.80
2018,07,28,06,52,17.90
2018,07,28,06,53,17.90
2018,07,28,06,54,17.90
2018,07,28,06,55,17.90
2018,07,28,06,56,17.90
2018,07,28,06,57,17.90
2018,07,28,06,58,18.00
2018,07,28,06,59,18.00
2018,07,28,07,00,18.00
2018,07,28,07,01,18.00
2018,07,28,07,02,18.00
2018,07,28,07,03,18.10
2018,07,28,07,04,18.10
2018,07,28,07,05,18.10
2018,07,28,07,06,18.10
2018,07,28,07,07,18.20
2018,07,28,07,08,18.20
2018,07,28,07,09,18.30
2018,07,28,07,10,18.40
2018,07,28,07,11,18.40
2018,07,28,07,12,18.50
2018,07,28,07,13,18.60
2018,07,28,07,14,18.70
2018,07,28,07,15,18.80
2018,07,28,07,16,18.80
2018,07,28,07,17,18.90
2018,07,28,07,18,18.90
2018,07,28,07,19,18.90
2018,07,28,07,20,18.90
2018,07,28,07,21,19.00
2018,07,28,07,22,19.00
2018,07,28,07,23,19.10
2018,07,28,07,24,19.20
2018,07,28,07,25,19.30
2018,07,28,07,26,19.40
2018,07,28,07,27,19.50
2018,07,28,07,28,19.70
2018,07,28,07,29,19.80
2018,07,28,07,30,19.90
2018,07,28,07,31,20.00
2018,07,28,07,32,20.00
2018,07,28,07,33,20.20
2018,07,28,07,34,20.20
2018,07,28,07,35,20.30
2018,07,28,07,36,20.40
2018,07,28,07,37,20.50
2018,07,28,07,38,20.60
2018,07,28,07,39,20.70
2018,07,28,07,40,20.80
2018,07,28,07,41,20.80
2018,07,28,07,42,20.90
2018,07,28,07,43,21.00
2018,07,28,07,44,21.10
2018,07,28,07,45,21.20
2018,07,28,07,46,21.30
2018,07,28,07,47,21.30
2018,07,28,07,48,21.40
2018,07,28,07,49,21.50
2018,07,28,07,50,21.60
2018,07,28,07,51,21.60
2018,07,28,07,52,21.70
2018,07,28,07,53,21.70
2018,07,28,07,54,21.70
2018,07,28,07,55,21.80
2018,07,28,07,56,21.80
2018,07,28,07,57,21.80
2018,07,28,07,58,21.80
2018,07,28,07,59,21.80
2018,07,28,08,00,21.80
2018,07,28,08,01,21.70
2018,07,28,08,02,21.70
2018,07,28,08,03,21.70
2018,07,28,08,04,21.70
2018,07,28,08,05,21.70
2018,07,28,08,06,21.80
2018,07,28,08,07,21.80
2018,07,28,08,08,21.80
2018,07,28,08,09,21.80
2018,07,28,08,10,21.90
2018,07,28,08,11,21.90
2018,07,28,08,12,22.00
2018,07,28,08,13,22.00
2018,07,28,08,14,22.00
2018,07,28,08,15,22.00
2018,07,28,08,16,21.90
2018,07,28,08,17,21.90
2018,07,28,08,18,22.00
2018,07,28,08,19,22.00
2018,07,28,08,20,22.10
2018,07,28,08,21,22.10
2018,07,28,08,22,22.10
2018,07,28,08,23,22.20
2018,07,28,08,24,22.20
2018,07,28,08,25,22.20
2018,07,28,08,26,22.20
2018,07,28,08,27,22.30
2018,07,28,08,28,22.30
2018,07,28,08,29,22.30
2018,07,28,08,30,22.30
2018,07,28,08,31,22.40
2018,07,28,08,32,22.40
2018,07,28,08,33,22.50
2018,07,28,08,34,22.50
2018,07,28,08,35,22.60
2018,07,28,08,36,22.60
2018,07,28,08,37,22.60
2018,07,28,08,38,22.70
2018,07,28,08,39,22.70
2018,07,28,08,40,22.80
2018,07,28,08,41,22.90
2018,07,28,08,42,22.90
2018,07,28,08,43,22.90
2018,07,28,08,44,22.80
2018,07,28,08,45,22.80
2018,07,28,08,46,22.90
2018,07,28,08,47,22.90
2018,07,28,08,48,23.00
2018,07,28,08,49,23.10
2018,07,28,08,50,23.20
2018,07,28,08,51,23.20
2018,07,28,08,52,23.20
2018,07,28,08,53,23.20
2018,07,28,08,54,23.10
2018,07,28,08,55,23.10
2018,07,28,08,56,23.10
2018,07,28,08,57,23.10
2018,07,28,08,58,23.10
2018,07,28,08,59,23.10
2018,07,28,09,00,23.20
2018,07,28,09,01,23.20
2018,07,28,09,02,23.30
2018,07,28,09,03,23.30
2018,07,28,09,04,23.30
2018,07,28,09,05,23.40
2018,07,28,09,06,23.40
2018,07,28,09,07,23.40
2018,07,28,09,08,23.40
2018,07,28,09,09,23.30
2018,07,28,09,10,23.20
2018,07,28,09,11,23.10
2018,07,28,09,12,23.10
2018,07,28,09,13,23.10
2018,07,28,09,14,23.10
2018,07,28,09,15,23.20
2018,07,28,09,16,23.10
2018,07,28,09,17,23.00
2018,07,28,09,18,22.90
2018,07,28,09,19,22.90
2018,07,28,09,20,22.90
2018,07,28,09,21,22.90
2018,07,28,09,22,22.80
2018,07,28,09,23,22.70
2018,07,28,09,24,22.70
2018,07,28,09,25,22.60
2018,07,28,09,26,22.50
2018,07,28,09,27,22.40
2018,07,28,09,28,22.40
2018,07,28,09,29,22.30
2018,07,28,09,30,22.20
2018,07,28,09,31,22.20
2018,07,28,09,32,22.20
2018,07,28,09,33,22.20
2018,07,28,09,34,22.20
2018,07,28,09,35,22.30
2018,07,28,09,36,22.30
2018,07,28,09,37,22.30
2018,07,28,09,38,22.30
2018,07,28,09,39,22.30
2018,07,28,09,40,22.30
2018,07,28,09,41,22.30
2018,07,28,09,42,22.30
2018,07,28,09,43,22.20
2018,07,28,09,44,22.30
2018,07,28,09,45,22.30
2018,07,28,09,46,22.30
2018,07,28,09,47,22.40
2018,07,28,09,48,22.40
2018,07,28,09,49,22.40
2018,07,28,09,50,22.40
2018,07,28,09,51,22.40
2018,07,28,09,52,22.40
2018,07,28,09,53,22.40
2018,07,28,09,54,22.50
2018,07,28,09,55,22.50
2018,07,28,09,56,22.60
2018,07,28,09,57,22.60
2018,07,28,09,58,22.70
2018,07,28,09,59,22.70
2018,07,28,10,00,22.70
2018,07,28,10,01,22.70
2018,07,28,10,02,22.70
2018,07,28,10,03,22.70
2018,07,28,10,04,22.70
2018,07,28,10,05,22.70
2018,07,28,10,06,22.70
2018,07,28,10,07,22.70
2018,07,28,10,08,22.80
2018,07,28,10,09,22.80
2018,07,28,10,10,22.80
2018,07,28,10,11,22.80
2018,07,28,10,12,22.80
2018,07,28,10,13,22.80
2018,07,28,10,14,22.80
2018,07,28,10,15,22.90
2018,07,28,10,16,22.90
2018,07,28,10,17,23.00
2018,07,28,10,18,23.00
2018,07,28,10,19,23.00
2018,07,28,10,20,23.00
2018,07,28,10,21,23.10
2018,07,28,10,22,23.10
2018,07,28,10,23,23.10
2018,07,28,10,24,23.20
2018,07,28,10,25,23.10
2018,07,28,10,26,23.10
2018,07,28,10,27,23.10
2018,07,28,10,28,23.10
2018,07,28,10,29,23.10
2018,07,28,10,30,23.20
2018,07,28,10,31,23.10
2018,07,28,10,32,23.10
2018,07,28,10,33,23.10
2018,07,28,10,34,23.10
2018,07,28,10,35,23.10
2018,07,28,10,36,23.10
2018,07,28,10,37,23.00
2018,07,28,10,38,23.00
2018,07,28,10,39,23.00
2018,07,28,10,40,23.00
2018,07,28,10,41,23.10
2018,07,28,10,42,23.10
2018,07,28,10,43,23.10
2018,07,28,10,44,23.20
2018,07,28,10,45,23.20
2018,07,28,10,46,23.20
2018,07,28,10,47,23.20
2018,07,28,10,48,23.20
2018,07,28,10,49,23.20
2018,07,28,10,50,23.30
2018,07,28,10,51,23.30
2018,07,28,10,52,23.30
2018,07,28,10,53,23.30
2018,07,28,10,54,23.30
2018,07,28,10,55,23.30
2018,07,28,10,56,23.20
2018,07,28,10,57,23.20
2018,07,28,10,58,23.30
2018,07,28,10,59,23.30
2018,07,28,11,00,23.30
2018,07,28,11,01,23.40
2018,07,28,11,02,23.40
2018,07,28,11,03,23.40
2018,07,28,11,04,23.40
2018,07,28,11,05,23.30
2018,07,28,11,06,23.30
2018,07,28,11,07,23.30
2018,07,28,11,08,23.30
2018,07,28,11,09,23.30
2018,07,28,11,10,23.40
2018,07,28,11,11,23.40
2018,07,28,11,12,23.50
2018,07,28,11,13,23.50
2018,07,28,11,14,23.50
2018,07,28,11,15,23.50
2018,07,28,11,16,23.50
2018,07,28,11,17,23.40
2018,07,28,11,18,23.40
2018,07,28,11,19,23.40
2018,07,28,11,20,23.40
2018,07,28,11,21,23.50
2018,07,28,11,22,23.50
2018,07,28,11,23,23.60
2018,07,28,11,24,23.60
2018,07,28,11,25,23.60
2018,07,28,11,26,23.60
2018,07,28,11,27,23.60
2018,07,28,11,28,23.60
2018,07,28,11,29,23.60
2018,07,28,11,30,23.60
2018,07,28,11,31,23.50
2018,07,28,11,32,23.50
2018,07,28,11,33,23.60
2018,07,28,11,34,23.70
2018,07,28,11,35,23.80
2018,07,28,11,36,23.80
2018,07,28,11,37,23.90
2018,07,28,11,38,23.90
2018,07,28,11,39,23.90
2018,07,28,11,40,24.00
2018,07,28,11,41,24.00
2018,07,28,11,42,24.10
2018,07,28,11,43,24.10
2018,07,28,11,44,24.20
2018,07,28,11,45,24.30
2018,07,28,11,46,24.30
2018,07,28,11,47,24.30
2018,07,28,11,48,24.30
2018,07,28,11,49,24.30
2018,07,28,11,50,24.20
2018,07,28,11,51,24.20
2018,07,28,11,52,24.30
2018,07,28,11,53,24.20
2018,07,28,11,54,24.20
2018,07,28,11,55,24.20
2018,07,28,11,56,24.20
2018,07,28,11,57,24.20
2018,07,28,11,58,24.20
2018,07,28,11,59,24.10
2018,07,28,12,00,24.10
2018,07,28,12,01,24.10
2018,07,28,12,02,24.10
2018,07,28,12,03,24.10
2018,07,28,12,04,24.10
2018,07,28,12,05,24.20
2018,07,28,12,06,24.20
2018,07,28,12,07,24.30
2018,07,28,12,08,24.40
2018,07,28,12,09,24.40
2018,07,28,12,10,24.40
2018,07,28,12,11,24.40
2018,07,28,12,12,24.50
2018,07,28,12,13,24.60
2018,07,28,12,14,24.60
2018,07,28,12,15,24.60
2018,07,28,12,16,24.60
2018,07,28,12,17,24.60
2018,07,28,12,18,24.60
2018,07,28,12,19,24.70
2018,07,28,12,20,24.70
2018,07,28,12,21,24.70
2018,07,28,12,22,24.60
2018,07,28,12,23,24.60
2018,07,28,12,24,24.60
2018,07,28,12,25,24.60
2018,07,28,12,26,24.70
2018,07,28,12,27,24.80
2018,07,28,12,28,24.80
2018,07,28,12,29,24.80
2018,07,28,12,30,24.80
2018,07,28,12,31,24.90
2018,07,28,12,32,24.90
2018,07,28,12,33,24.90
2018,07,28,12,34,25.00
2018,07,28,12,35,25.00
2018,07,28,12,36,25.00
2018,07,28,12,37,25.00
2018,07,28,12,38,25.00
2018,07,28,12,39,25.00
2018,07,28,12,40,24.90
2018,07,28,12,41,24.90
2018,07,28,12,42,25.00
2018,07,28,12,43,25.00
2018,07,28,12,44,25.10
2018,07,28,12,45,25.20
2018,07,28,12,46,25.20
2018,07,28,12,47,25.30
2018,07,28,12,48,25.30
2018,07,28,12,49,25.30
2018,07,28,12,50,25.30
2018,07,28,12,51,25.40
2018,07,28,12,52,25.40
2018,07,28,12,53,25.50
2018,07,28,12,54,25.50
2018,07,28,12,55,25.50
2018,07,28,12,56,25.40
2018,07,28,12,57,25.40
2018,07,28,12,58,25.40
2018,07,28,12,59,25.40
2018,07,28,13,00,25.40
2018,07,28,13,01,25.50
2018,07,28,13,02,25.60
2018,07,28,13,03,25.60
2018,07,28,13,04,25.60
2018,07,28,13,05,25.60
2018,07,28,13,06,25.60
2018,07,28,13,07,25.60
2018,07,28,13,08,25.70
2018,07,28,13,09,25.80
2018,07,28,13,10,25.90
2018,07,28,13,11,25.90
2018,07,28,13,12,25.90
2018,07,28,13,13,25.90
2018,07,28,13,14,25.90
2018,07,28,13,15,25.90
2018,07,28,13,16,25.90
2018,07,28,13,17,26.00
2018,07,28,13,18,26.00
2018,07,28,13,19,26.20
2018,07,28,13,20,26.30
2018,07,28,13,21,26.30
2018,07,28,13,22,26.30
2018,07,28,13,23,26.40
2018,07,28,13,24,26.40
2018,07,28,13,25,26.50
2018,07,28,13,26,26.50
2018,07,28,13,27,26.50
2018,07,28,13,28,26.50
2018,07,28,13,29,26.40
2018,07,28,13,30,26.40
2018,07,28,13,31,26.40
2018,07,28,13,32,26.40
2018,07,28,13,33,26.40
2018,07,28,13,34,26.50
2018,07,28,13,35,26.50
2018,07,28,13,36,26.60
2018,07,28,13,37,26.50
2018,07,28,13,38,26.50
2018,07,28,13,39,26.40
2018,07,28,13,40,26.40
2018,07,28,13,41,26.40
2018,07,28,13,42,26.50
2018,07,28,13,43,26.50
2018,07,28,13,44,26.60
2018,07,28,13,45,26.60
2018,07,28,13,46,26.60
2018,07,28,13,47,26.60
2018,07,28,13,48,26.70
2018,07,28,13,49,26.70
2018,07,28,13,50,26.70
2018,07,28,13,51,26.70
2018,07,28,13,52,26.70
2018,07,28,13,53,26.70
2018,07,28,13,54,26.70
2018,07,28,13,55,26.80
2018,07,28,13,56,26.80
2018,07,28,13,57,26.80
2018,07,28,13,58,26.80
2018,07,28,13,59,26.80
2018,07,28,14,00,26.80
2018,07,28,14,01,26.80
2018,07,28,14,02,26.80
2018,07,28,14,03,26.80
2018,07,28,14,04,26.80
2018,07,28,14,05,26.80
2018,07,28,14,06,26.80
2018,07,28,14,07,26.90
2018,07,28,14,08,26.90
2018,07,28,14,09,27.00
2018,07,28,14,10,27.10
2018,07,28,14,11,27.10
2018,07,28,14,12,27.20
2018,07,28,14,13,27.20
2018,07,28,14,14,27.20
2018,07,28,14,15,27.20
2018,07,28,14,16,27.10
2018,07,28,14,17,27.10
2018,07,28,14,18,27.10
2018,07,28,14,19,27.20
2018,07,28,14,20,27.20
2018,07,28,14,21,27.20
2018,07,28,14,22,27.30
2018,07,28,14,23,27.40
2018,07,28,14,24,27.50
2018,07,28,14,25,27.60
2018,07,28,14,26,27.60
2018,07,28,14,27,27.50
2018,07,28,14,28,27.50
2018,07,28,14,29,27.50
2018,07,28,14,30,27.60
2018,07,28,14,31,27.60
2018,07,28,14,32,27.70
2018,07,28,14,33,27.70
2018,07,28,14,34,27.70
2018,07,28,14,35,27.70
2018,07,28,14,36,27.70
2018,07,28,14,37,27.70
2018,07,28,14,38,27.70
2018,07,28,14,39,27.70
2018,07,28,14,40,27.80
2018,07,28,14,41,27.90
2018,07,28,14,42,28.00
2018,07,28,14,43,28.10
2018,07,28,14,44,28.20
2018,07,28,14,45,28.20
2018,07,28,14,46,28.20
2018,07,28,14,47,28.20
2018,07,28,14,48,28.20
2018,07,28,14,49,28.20
2018,07,28,14,50,28.20
2018,07,28,14,51,28.30
2018,07,28,14,52,28.30
2018,07,28,14,53,28.30
2018,07,28,14,54,28.30
2018,07,28,14,55,28.30
2018,07,28,14,56,28.30
2018,07,28,14,57,28.30
2018,07,28,14,58,28.30
2018,07,28,14,59,28.40
2018,07,28,15,00,28.40
2018,07,28,15,01,28.40
2018,07,28,15,02,28.30
2018,07,28,15,03,28.20
2018,07,28,15,04,28.20
2018,07,28,15,05,28.10
2018,07,28,15,06,28.00
2018,07,28,15,07,28.00
2018,07,28,15,08,27.90
2018,07,28,15,09,28.00
2018,07,28,15,10,27.90
2018,07,28,15,11,27.90
2018,07,28,15,12,27.90
2018,07,28,15,13,27.80
2018,07,28,15,14,27.80
2018,07,28,15,15,27.80
2018,07,28,15,16,27.80
2018,07,28,15,17,27.80
2018,07,28,15,18,27.80
2018,07,28,15,19,27.90
2018,07,28,15,20,27.90
2018,07,28,15,21,28.00
2018,07,28,15,22,28.00
2018,07,28,15,23,28.10
2018,07,28,15,24,28.00
2018,07,28,15,25,27.90
2018,07,28,15,26,27.90
2018,07,28,15,27,27.80
2018,07,28,15,28,27.80
2018,07,28,15,29,27.80
2018,07,28,15,30,27.80
2018,07,28,15,31,27.90
2018,07,28,15,32,28.00
2018,07,28,15,33,28.00
2018,07,28,15,34,28.00
2018,07,28,15,35,28.10
2018,07,28,15,36,28.10
2018,07,28,15,37,28.10
2018,07,28,15,38,28.10
2018,07,28,15,39,28.20
2018,07,28,15,40,28.20
2018,07,28,15,41,28.30
2018,07,28,15,42,28.30
2018,07,28,15,43,28.30
2018,07,28,15,44,28.30
2018,07,28,15,45,28.30
2018,07,28,15,46,28.30
2018,07,28,15,47,28.30
2018,07,28,15,48,28.30
2018,07,28,15,49,28.30
2018,07,28,15,50,28.30
2018,07,28,15,51,28.40
2018,07,28,15,52,28.40
2018,07,28,15,53,28.50
2018,07,28,15,54,28.50
2018,07,28,15,55,28.50
2018,07,28,15,56,28.50
2018,07,28,15,57,28.50
2018,07,28,15,58,28.50
2018,07,28,15,59,28.50
2018,07,28,16,00,28.40
2018,07,28,16,01,28.40
2018,07,28,16,02,28.40
2018,07,28,16,03,28.40
2018,07,28,16,04,28.30
2018,07,28,16,05,28.30
2018,07,28,16,06,28.30
2018,07,28,16,07,28.30
2018,07,28,16,08,28.40
2018,07,28,16,09,28.40
2018,07,28,16,10,28.40
2018,07,28,16,11,28.40
2018,07,28,16,12,28.40
2018,07,28,16,13,28.40
2018,07,28,16,14,28.40
2018,07,28,16,15,28.40
2018,07,28,16,16,28.40
2018,07,28,16,17,28.40
2018,07,28,16,18,28.50
2018,07,28,16,19,28.50
2018,07,28,16,20,28.50
2018,07,28,16,21,28.50
2018,07,28,16,22,28.50
2018,07,28,16,23,28.40
2018,07,28,16,24,28.40
2018,07,28,16,25,28.40
2018,07,28,16,26,28.40
2018,07,28,16,27,28.40
2018,07,28,16,28,28.40
2018,07,28,16,29,28.40
2018,07,28,16,30,28.40
2018,07,28,16,31,28.40
2018,07,28,16,32,28.40
2018,07,28,16,33,28.40
2018,07,28,16,34,28.40
2018,07,28,16,35,28.40
2018,07,28,16,36,28.40
2018,07,28,16,37,28.40
2018,07,28,16,38,28.50
2018,07,28,16,39,28.50
2018,07,28,16,40,28.50
2018,07,28,16,41,28.60
2018,07,28,16,42,28.60
2018,07,28,16,43,28.60
2018,07,28,16,44,28.60
2018,07,28,16,45,28.60
2018,07,28,16,46,28.60
2018,07,28,16,47,28.60
2018,07,28,16,48,28.60
2018,07,28,16,49,28.70
2018,07,28,16,50,28.70
2018,07,28,16,51,28.70
2018,07,28,16,52,28.70
2018,07,28,16,53,28.70
2018,07,28,16,54,28.70
2018,07,28,16,55,28.70
2018,07,28,16,56,28.70
2018,07,28,16,57,28.70
2018,07,28,16,58,28.70
2018,07,28,16,59,28.70
2018,07,28,17,00,28.70
2018,07,28,17,01,28.70
2018,07,28,17,02,28.80
2018,07,28,17,03,28.80
2018,07,28,17,04,28.80
2018,07,28,17,05,28.80
2018,07,28,17,06,28.80
2018,07,28,17,07,28.80
2018,07,28,17,08,28.80
2018,07,28,17,09,28.80
2018,07,28,17,10,28.80
2018,07,28,17,11,28.80
2018,07,28,17,12,28.80
2018,07,28,17,13,28.80
2018,07,28,17,14,28.80
2018,07,28,17,15,28.80
2018,07,28,17,16,28.80
2018,07,28,17,17,28.80
2018,07,28,17,18,28.80
2018,07,28,17,19,28.70